This demonstration page uses our WeatherBlox Daily Observations layout. Learn more.

Left ArrowRight Arrow

38.88101, -77.10428

Hourly Observations for November 16, 2018

Temp ( °F °C ) Dew Point ( °F °C ) Humidity (%) Winds ( mph kmh ) Pressure ( in mb ) Visibility ( mi km ) Precip ( " mm )
12:03 am 00:03 Cloudy with Light Rain 38 3.3 35 1.7 89 89 NW 17 28 29.68 1005 5 8.0467 0 0.0254
12:15 am 00:15 Cloudy with Light Rain 38 3.3 34 1.1 86 86 NW 16 26 29.68 1005 8 12.87472 0 0.0254
12:33 am 00:33 Cloudy with Light Rain 37 2.8 34 1.1 89 89 NW 12 19 29.68 1005 3 4.82802 0.01 0.254
12:52 am 00:52 Cloudy with Light Rain 37 2.8 34 1.1 89 89 NW 16 26 29.67 1005 4 6.43736 0.02 0.508
1:02 am 01:02 Cloudy with Light Rain 37 2.8 34 1.1 89 89 WNW 14 22 29.68 1005 4 6.43736 0 0.0254
1:32 am 01:32 Cloudy with Light Rain 37 2.8 33 0.6 86 86 WNW 16 26 29.68 1005 4 6.43736 0.01 0.254
1:52 am 01:52 Cloudy with Light Rain 37 2.8 33 0.6 86 86 WNW 17 28 29.7 1006 4 6.43736 0.02 0.508
2:11 am 02:11 Cloudy with Light Rain 37 2.8 33 0.6 86 86 WNW 18 30 29.71 1006 4 6.43736 0 0.0254
2:19 am 02:19 Cloudy with Light Rain 37 2.8 33 0.6 86 86 NW 16 26 29.71 1006 8 12.87472 0.01 0.254
2:34 am 02:34 Cloudy 38 3.3 33 0.6 83 83 WNW 12 19 29.71 1006 10 16.0934 0.01 0.254
2:41 am 02:41 Cloudy 38 3.3 33 0.6 83 83 WNW 13 20 29.71 1006 10 16.0934 0.01 0.254
2:52 am 02:52 Cloudy 38 3.3 33 0.6 83 83 WNW 9 15 29.72 1007 10 16.0934 0.01 0.254
3:52 am 03:52 Cloudy 38 3.3 32 0 79 79 WNW 10 17 29.73 1007 10 16.0934 0 0
4:11 am 04:11 Partly Cloudy 38 3.3 32 0 79 79 WNW 13 20 29.74 1007 10 16.0934 0 0
4:36 am 04:36 Mostly Cloudy 38 3.3 32 0 79 79 WNW 7 11 29.77 1008 10 16.0934 0 0
4:44 am 04:44 Partly Cloudy 38 3.3 31 -0.6 76 76 WNW 8 13 29.77 1008 10 16.0934 0 0
4:52 am 04:52 Mostly Cloudy 38 3.3 31 -0.6 76 76 WNW 8 13 29.76 1008 10 16.0934 0 0
5:00 am 05:00 Mostly Clear 37 2.8 31 -0.6 79 79 W 7 11 29.77 1008 10 16.0934 0 0
5:52 am 05:52 Mostly Clear 38 3.3 31 -0.6 76 76 W 8 13 29.8 1009 10 16.0934 0 0
6:52 am 06:52 Mostly Sunny 38 3.3 31 -0.6 76 76 SW 8 13 29.83 1010 10 16.0934 0 0
7:52 am 07:52 Mostly Sunny 41 5 32 0 70 70 WNW 7 11 29.86 1011 10 16.0934 0 0
8:52 am 08:52 Mostly Sunny 45 7.2 32 0 61 61 WNW 15 24 29.87 1011 10 16.0934 0 0
9:52 am 09:52 Mostly Sunny 46 7.8 33 0.6 61 61 WNW 16 26 29.89 1012 10 16.0934 0 0
10:52 am 10:52 Mostly Sunny 48 8.9 33 0.6 56 56 NW 15 24 29.91 1013 10 16.0934 0 0
11:52 am 11:52 Mostly Sunny 49 9.4 32 0 52 52 W 12 19 29.9 1013 10 16.0934 0 0
12:52 pm 12:52 Partly Cloudy 51 10.6 33 0.6 50 50 W 12 19 29.89 1012 10 16.0934 0 0
1:52 pm 13:52 Mostly Cloudy 53 11.7 33 0.6 47 47 W 12 19 29.9 1013 10 16.0934 0 0
2:52 pm 14:52 Partly Cloudy 53 11.7 32 0 45 45 W 12 19 29.9 1013 10 16.0934 0 0
3:52 pm 15:52 Partly Cloudy 51 10.6 31 -0.6 46 46 W 9 15 29.92 1013 10 16.0934 0 0
4:52 pm 16:52 Partly Cloudy 49 9.4 31 -0.6 50 50 W 8 13 29.94 1014 10 16.0934 0 0
5:52 pm 17:52 Partly Cloudy 46 7.8 32 0 58 58 NNW 13 20 29.98 1015 10 16.0934 0 0
6:52 pm 18:52 Partly Cloudy 45 7.2 30 -1.1 56 56 NNW 7 11 30 1016 10 16.0934 0 0
7:52 pm 19:52 Partly Cloudy 46 7.8 31 -0.6 56 56 WNW 13 20 30.04 1017 10 16.0934 0 0
8:52 pm 20:52 Mostly Cloudy 46 7.8 31 -0.6 56 56 W 15 24 30.06 1018 10 16.0934 0 0
9:52 pm 21:52 Cloudy 48 8.9 30 -1.1 50 50 WNW 18 30 30.08 1019 10 16.0934 0 0
10:52 pm 22:52 Partly Cloudy 47 8.3 30 -1.1 52 52 NW 16 26 30.09 1019 10 16.0934 0 0
11:52 pm 23:52 Partly Cloudy 45 7.2 30 -1.1 56 56 NW 10 17 30.11 1020 10 16.0934 0 0

Powered by AerisWeather